Location: Az?znagar
(16.8373°N, 80.5091°E)
Time: 10:54:35
(UTC+00:00)

BlueWalker 3 - Pass Details

Date: 13 December 2022
Orbit: 499 x 517 km, 53.2° (Epoch: 01 February)

Event Time Altitude Azimuth Distance (km) Brightness Sun altitude
Rises 14:35:12 0° 298° (WNW) 2,592 6.1 -34.3°
Reaches altitude 10° 14:38:07 10° 274° (W) 1,702 5.3 -35.0°
Enters shadow 14:38:24 11° 271° (W) 1,642 5.2 -35.1°
